Regional Weather Roundup
Issued by NWS

Home | Current Version | Previous Version | Graphics & Text | Print | Product List | Glossary Off
Versions: 1 2 3 4 5 6 7 8 9 10 11 12 13 14 15 16 17 18 19 20 21 22 23 24 25 26 27 28 29 30 31 32 33 34 35 36 37 38 39 40 41 42 43 44 45 46 47 48 49 50

000
ASUS43 KTOP 291008
RWRKS

WEATHER ROUNDUP FOR KANSAS
NATIONAL WEATHER SERVICE GOODLAND KS
500 AM CDT FRI MAY 29 2015

NOTE:  "FAIR" INDICATES FEW OR NO CLOUDS BELOW 12,000 FEET WITH NO
SIGNIFICANT WEATHER AND/OR OBSTRUCTIONS TO VISIBILITY.

KSZ001>006-013>018-027>032-041>047-291100-
NORTHWEST KANSAS

CITY           SKY/WX    TMP DP  RH WIND       PRES   REMARKS
GOODLAND       CLEAR     52  49  89 W7        30.03F
HAYS           PTCLDY    57  48  72 NW6       29.96S
HILL CITY      MOCLDY    56  53  90 W8        29.96F
RUSSELL        CLOUDY    60  58  92 NW5       29.95R
$$

KSZ061>065-074>080-084>089-291100-
SOUTHWEST KANSAS

CITY           SKY/WX    TMP DP  RH WIND       PRES   REMARKS
DODGE CITY     PTCLDY    56  53  90 NW8       29.99R
ELKHART          N/A     55  50  83 NW6         N/A
GARDEN CITY    PTCLDY    53  52  96 N6        29.99F
GREAT BEND     CLOUDY    61  55  82 NW5       29.95S
LIBERAL        MOCLDY    57  54  88 NW8       30.02R
PRATT          MOCLDY    57  55  94 CALM      29.95S
$$

KSZ066>073-081>083-090>101-291100-
SOUTHEAST KANSAS

CITY           SKY/WX    TMP DP  RH WIND       PRES   REMARKS
CHANUTE        RAIN      67  65  93 NW13      29.98R FOG
COFFEYVILLE    CLOUDY    70  67  90 S9        29.94R
HUTCHINSON     PTCLDY    59  57  93 SE5       29.93R
MEDICINE LODGE   N/A     59  57  93 CALM      29.93S
NEWTON         CLOUDY    64  61  88 S7        29.95S
PARSONS        LGT RAIN  69  68  96 S7        29.97R
WICHITA INTL   CLOUDY    68  66  93 N3        29.92R
WICHITA JABRA  CLOUDY    64  63  96 VRB3      29.92S
WICHITA MCCONL CLOUDY    66  66 100 W1        29.92S
WINFIELD       CLOUDY    70  68  93 SE6       29.94R
$$

KSZ007>012-019>026-033>040-048>060-102>105-291100-
NORTHEAST KANSAS

CITY           SKY/WX    TMP DP  RH WIND       PRES   REMARKS
CONCORDIA      PTCLDY    60  58  92 S5        29.91S
EMPORIA        CLOUDY    65  62  90 SE14      29.91F
LAWRENCE       LGT RAIN  65  64  97 SE7       29.95R FOG
MANHATTAN      MOCLDY    65  64  97 W5        29.92R
MARYSVILLE     CLOUDY    63  63 100 S3        29.92R
OLATHE IND     FOG       64  64 100 S7        29.95S VSB 1/2
OLATHE EXE     FOG       64  64 100 S8        29.93F VSB 3/4
SALINA         PTCLDY    62  58  86 W3        29.93R
TOPEKA BILLARD LGT RAIN  67  65  93 SE8       29.92R
TOPEKA FORBES  LGT RAIN  67  63  87 S12       29.94R
$$


USA.gov is the U.S. government's official web portal to all federal, state and local government web resources and services.